W4NDF-13 Weather Reports


Display with metric or nautical units.
time (UTC)temp
F
wind
direction
speed
MPH
gust
MPH
rain 1hr
in
rain 24hr
in
rain mn
in
humidity
%
barometer
mb
20260508113531 69 122 4.0 7.0 0.00 0.00 0.00 88 1014.4
20260508113029 69 113 5.0 6.0 0.00 0.00 0.00 88 1014.8
20260508112524 70 48 4.0 4.0 0.00 0.00 0.00 88 1015.1
20260508112021 70 126 2.0 6.0 0.00 0.00 0.00 88 1015.3
20260508111519 70 56 2.0 3.0 0.00 0.00 0.00 89 1015.3
20260508111015 70 38 2.0 3.0 0.00 0.00 0.00 89 1015.3
20260508110513 70 102 0.0 3.0 0.00 0.00 0.00 89 1015.2
20260508110009 69 30 2.0 4.0 0.00 0.00 0.00 89 1015.0
20260508105504 69 119 1.0 3.0 0.00 0.00 0.00 89 1015.1
20260508105001 69 47 2.0 3.0 0.00 0.00 0.00 89 1015.4
20260508104459 69 54 1.0 2.0 0.00 0.00 0.00 90 1015.2
20260508103955 69 0 2.0 2.0 0.00 0.00 0.00 90 1015.0
20260508103452 69 19 0.0 2.0 0.00 0.00 0.00 90 1014.8
20260508102949 69 114 2.0 3.0 0.00 0.00 0.00 90 1014.5
20260508102448 69 152 4.0 6.0 0.00 0.00 0.00 90 1014.5
20260508101944 69 75 1.0 2.0 0.00 0.00 0.00 90 1014.3
20260508101442 69 116 1.0 3.0 0.00 0.00 0.00 90 1014.2
20260508100939 69 84 2.0 7.0 0.00 0.00 0.00 90 1013.7
20260508100438 69 115 2.0 3.0 0.00 0.00 0.00 90 1013.7
20260508095934 69 93 3.0 7.0 0.00 0.00 0.00 91 1013.6
20260508095431 69 49 3.0 9.0 0.00 0.00 0.00 91 1014.1
20260508094928 69 101 2.0 6.0 0.00 0.00 0.00 91 1013.8
20260508094424 69 99 5.0 6.0 0.00 0.00 0.00 91 1013.9
20260508093921 69 113 7.0 8.0 0.00 0.00 0.00 91 1013.8
20260508093419 70 36 1.0 3.0 0.00 0.00 0.00 91 1014.1
20260508092917 69 39 7.0 9.0 0.00 0.00 0.00 91 1013.9
20260508092414 70 277 4.0 6.0 0.00 0.00 0.00 91 1013.9
20260508091912 70 21 3.0 6.0 0.00 0.00 0.00 91 1013.8
20260508091409 70 98 1.0 6.0 0.00 0.00 0.00 91 1013.7
20260508090906 70 3 3.0 4.0 0.00 0.00 0.00 91 1013.8
20260508090405 70 109 4.0 6.0 0.00 0.00 0.00 91 1014.0
20260508085900 70 34 4.0 4.0 0.00 0.00 0.00 91 1013.8
20260508085357 71 76 2.0 4.0 0.00 0.00 0.00 91 1013.8
20260508084854 71 142 1.0 6.0 0.00 0.00 0.00 91 1013.9
20260508084350 71 84 3.0 6.0 0.00 0.00 0.00 90 1014.0
20260508083849 71 17 1.0 4.0 0.00 0.00 0.00 90 1013.7
20260508083346 71 45 1.0 2.0 0.00 0.00 0.00 90 1013.9
20260508082845 71 58 2.0 4.0 0.00 0.00 0.00 90 1013.7
20260508082343 71 62 5.0 7.0 0.00 0.00 0.00 90 1013.8
20260508081840 71 47 1.0 3.0 0.00 0.00 0.00 90 1013.9
20260508081337 71 44 2.0 6.0 0.00 0.00 0.00 90 1013.6
20260508080834 71 33 1.0 3.0 0.00 0.00 0.00 90 1013.8
20260508080332 71 113 2.0 3.0 0.00 0.00 0.00 90 1013.9
20260508075828 71 50 2.0 3.0 0.00 0.00 0.00 90 1013.6
20260508075325 71 119 2.0 7.0 0.00 0.00 0.00 90 1013.8
20260508074823 71 89 2.0 3.0 0.00 0.00 0.00 89 1013.9
20260508074320 71 20 2.0 6.0 0.00 0.00 0.00 89 1014.1
20260508073817 72 27 0.0 1.0 0.00 0.00 0.00 89 1014.2
20260508073315 72 24 0.0 4.0 0.00 0.00 0.00 89 1014.3
20260508072811 72 97 2.0 4.0 0.00 0.00 0.00 89 1014.1
20260508072308 72 118 2.0 3.0 0.00 0.00 0.00 89 1014.0
20260508071805 72 83 1.0 2.0 0.00 0.00 0.00 89 1014.0
20260508071303 72 65 1.0 3.0 0.00 0.00 0.00 89 1013.9
20260508070800 72 46 2.0 2.0 0.00 0.00 0.00 89 1014.1
20260508070259 72 359 1.0 2.0 0.00 0.00 0.00 89 1014.3
20260508065756 72 75 1.0 2.0 0.00 0.00 0.00 89 1014.1
20260508065253 72 108 1.0 2.0 0.00 0.00 0.00 89 1014.5
20260508064752 72 20 0.0 3.0 0.00 0.00 0.00 89 1014.6
20260508064249 72 35 1.0 4.0 0.00 0.00 0.00 89 1014.9
20260508063746 72 15 2.0 3.0 0.00 0.00 0.00 89 1014.9
20260508063244 72 21 1.0 4.0 0.00 0.00 0.00 89 1014.7
20260508062741 72 122 1.0 3.0 0.00 0.00 0.00 89 1014.9
20260508062239 72 102 2.0 2.0 0.00 0.00 0.00 89 1014.7
20260508061735 72 83 0.0 2.0 0.00 0.00 0.00 89 1014.8
20260508061233 72 39 2.0 2.0 0.00 0.00 0.00 89 1014.8
20260508060729 72 79 2.0 7.0 0.00 0.00 0.00 89 1014.6
20260508060227 72 20 1.0 1.0 0.00 0.00 0.00 89 1014.4
20260508055722 72 101 1.0 3.0 0.00 0.00 0.00 89 1014.5
20260508055219 72 300 0.0 2.0 0.00 0.00 0.00 89 1014.7
20260508054716 72 313 0.0 1.0 0.00 0.00 0.00 89 1015.1
20260508054214 72 99 1.0 3.0 0.00 0.00 0.00 89 1015.2
20260508053710 72 8 0.0 2.0 0.00 0.00 0.00 89 1015.3
20260508053208 72 17 2.0 7.0 0.00 0.00 0.00 89 1015.1
20260508052705 72 102 0.0 2.0 0.00 0.00 0.00 89 1015.4
20260508052202 72 79 1.0 3.0 0.00 0.00 0.00 89 1015.4
20260508051658 72 131 2.0 3.0 0.00 0.00 0.00 89 1015.3
20260508051154 72 84 2.0 6.0 0.00 0.00 0.00 89 1015.2
20260508050650 72 109 2.0 3.0 0.00 0.00 0.00 89 1015.0
20260508050148 72 84 1.0 3.0 0.00 0.00 0.00 90 1015.2
20260508045643 72 15 2.0 4.0 0.00 0.01 0.01 89 1015.3
20260508045141 72 305 2.0 3.0 0.00 0.01 0.01 90 1015.5
20260508044638 72 55 2.0 6.0 0.00 0.01 0.01 90 1015.5
20260508044134 72 48 2.0 3.0 0.00 0.01 0.01 89 1015.4
20260508043631 72 14 3.0 4.0 0.00 0.01 0.01 89 1015.6
20260508043129 72 40 1.0 2.0 0.00 0.01 0.01 89 1015.7
20260508042625 72 48 1.0 2.0 0.00 0.01 0.01 89 1015.8
20260508042123 72 67 4.0 6.0 0.00 0.01 0.01 89 1015.7
20260508041619 72 73 0.0 6.0 0.00 0.01 0.01 89 1015.5
20260508041115 72 112 2.0 3.0 0.00 0.01 0.01 89 1015.6
20260508040612 72 351 1.0 4.0 0.00 0.01 0.01 89 1015.5
20260508040110 72 32 4.0 6.0 0.00 0.01 0.01 89 1015.4
20260508035607 73 47 1.0 4.0 0.00 0.01 0.01 89 1015.5
20260508035104 73 130 3.0 7.0 0.00 0.01 0.01 89 1015.8
20260508034601 73 43 1.0 6.0 0.00 0.01 0.01 88 1016.0
20260508034058 73 324 2.0 6.0 0.00 0.01 0.01 88 1016.1
20260508033555 73 76 3.0 9.0 0.00 0.01 0.01 88 1016.0
20260508033054 73 57 5.0 9.0 0.00 0.01 0.01 88 1015.8
20260508032549 73 264 0.0 4.0 0.00 0.01 0.01 88 1015.9
20260508032048 73 40 1.0 4.0 0.00 0.01 0.01 87 1015.8
20260508031544 74 321 1.0 4.0 0.00 0.01 0.01 87 1015.6
20260508031040 74 217 4.0 8.0 0.00 0.01 0.01 87 1015.9
20260508030537 74 10 2.0 3.0 0.00 0.01 0.01 86 1015.9
20260508030035 74 35 2.0 7.0 0.00 0.01 0.01 86 1015.6
20260508025530 74 53 3.0 8.0 0.00 0.01 0.01 86 1015.4
20260508025028 74 0 0.0 6.0 0.00 0.01 0.01 86 1015.2
20260508024524 74 49 5.0 8.0 0.00 0.01 0.01 86 1014.9
20260508024021 75 44 6.0 8.0 0.00 0.01 0.01 86 1015.3
20260508023517 75 61 9.0 10.0 0.00 0.01 0.01 85 1015.2
20260508023015 75 54 5.0 7.0 0.00 0.01 0.01 84 1015.0
20260508022510 75 91 2.0 8.0 0.00 0.01 0.01 85 1015.2
20260508022008 75 40 2.0 4.0 0.00 0.01 0.01 85 1015.1
20260508021503 75 44 3.0 8.0 0.00 0.01 0.01 84 1015.2
20260508020959 75 14 2.0 8.0 0.00 0.01 0.01 85 1015.0
20260508020457 76 2 3.0 4.0 0.00 0.01 0.01 84 1015.5
20260508015954 76 46 2.0 8.0 0.00 0.01 0.01 84 1015.4
20260508015452 76 334 2.0 4.0 0.00 0.01 0.01 84 1015.6
20260508014949 76 30 4.0 6.0 0.00 0.01 0.01 83 1015.0
20260508014445 76 66 2.0 3.0 0.00 0.01 0.01 83 1015.1
20260508013941 76 50 4.0 8.0 0.00 0.01 0.01 83 1015.0
20260508013437 76 347 5.0 7.0 0.00 0.01 0.01 83 1015.0
20260508012935 76 44 1.0 7.0 0.00 0.01 0.01 84 1014.8
20260508012432 76 69 2.0 3.0 0.00 0.01 0.01 84 1014.7
20260508011929 76 63 2.0 7.0 0.00 0.01 0.01 84 1014.7
20260508011427 76 50 4.0 6.0 0.00 0.01 0.01 84 1014.6
20260508010924 75 42 2.0 4.0 0.00 0.01 0.01 85 1014.6
20260508010421 76 73 1.0 2.0 0.00 0.01 0.01 86 1014.8
20260508005918 75 64 0.0 3.0 0.00 0.01 0.01 86 1014.6
20260508005415 75 7 2.0 3.0 0.00 0.01 0.01 86 1014.5
20260508004912 75 35 3.0 6.0 0.00 0.01 0.01 86 1014.5
20260508004408 75 299 4.0 4.0 0.00 0.01 0.01 87 1014.3
20260508003905 75 36 2.0 3.0 0.00 0.01 0.01 87 1014.0
20260508003401 76 65 1.0 4.0 0.00 0.01 0.01 87 1014.1
20260508002859 76 26 3.0 3.0 0.00 0.01 0.01 87 1014.1
20260508002355 76 61 3.0 3.0 0.00 0.01 0.01 87 1014.3
20260508001851 76 344 0.0 1.0 0.00 0.01 0.01 87 1014.2
20260508001347 75 5 2.0 4.0 0.00 0.01 0.01 87 1014.4
20260508000844 76 340 1.0 2.0 0.00 0.01 0.01 86 1014.7
20260508000342 76 50 2.0 4.0 0.00 0.01 0.01 86 1014.8
20260507235837 76 340 2.0 3.0 0.00 0.01 0.01 86 1014.7
20260507235335 76 51 3.0 4.0 0.00 0.01 0.01 86 1014.7
20260507234831 76 263 2.0 2.0 0.00 0.01 0.01 86 1014.5
20260507234328 76 43 2.0 2.0 0.00 0.01 0.01 85 1014.7
20260507233824 76 280 2.0 3.0 0.00 0.01 0.01 85 1014.7
20260507233322 76 51 2.0 4.0 0.00 0.01 0.01 85 1014.5
20260507232820 76 24 2.0 6.0 0.00 0.01 0.01 85 1014.5
20260507232316 76 57 2.0 3.0 0.00 0.01 0.01 84 1014.7
20260507231813 76 316 4.0 6.0 0.00 0.01 0.01 84 1014.8
20260507231310 76 347 0.0 4.0 0.00 0.01 0.01 83 1014.7
20260507230806 76 284 1.0 3.0 0.00 0.01 0.01 83 1014.8
20260507230304 76 31 2.0 4.0 0.00 0.01 0.01 83 1014.8
20260507225804 76 269 0.0 1.0 0.00 0.01 0.01 83 1014.9
20260507225300 76 73 0.0 2.0 0.00 0.01 0.01 83 1014.9
20260507224756 76 56 1.0 4.0 0.00 0.01 0.01 82 1014.8
20260507224253 77 5 3.0 4.0 0.00 0.01 0.01 81 1014.6
20260507223749 77 358 4.0 6.0 0.00 0.01 0.01 80 1014.6
20260507223246 78 64 2.0 4.0 0.00 0.01 0.01 80 1014.7
20260507222743 78 295 1.0 4.0 0.00 0.01 0.01 80 1014.5
20260507222238 78 9 2.0 4.0 0.00 0.01 0.01 79 1014.6
20260507221736 78 298 1.0 3.0 0.00 0.01 0.01 79 1014.6
20260507221232 78 48 1.0 3.0 0.00 0.01 0.01 79 1014.5
20260507220728 78 305 2.0 4.0 0.00 0.01 0.01 80 1014.4
20260507220227 78 281 0.0 3.0 0.00 0.01 0.01 80 1014.4
20260507215723 78 293 2.0 3.0 0.00 0.01 0.01 79 1014.2
20260507215220 78 342 1.0 4.0 0.00 0.01 0.01 80 1014.2
20260507214717 77 306 1.0 2.0 0.00 0.01 0.01 81 1014.3
20260507214215 77 46 0.0 3.0 0.00 0.01 0.01 81 1014.4
20260507213709 76 27 2.0 3.0 0.00 0.01 0.01 81 1014.4
20260507213207 76 292 1.0 2.0 0.00 0.01 0.01 82 1014.5
20260507212703 76 329 1.0 2.0 0.00 0.01 0.01 82 1014.4
20260507212200 76 284 0.0 2.0 0.00 0.01 0.01 82 1014.3
20260507211657 76 24 1.0 1.0 0.00 0.01 0.01 82 1014.6
20260507211152 76 53 2.0 3.0 0.00 0.01 0.01 82 1014.6
20260507210650 75 303 1.0 2.0 0.00 0.01 0.01 83 1014.4
20260507210146 75 32 3.0 4.0 0.00 0.01 0.01 84 1014.5
20260507205643 75 54 1.0 2.0 0.00 0.01 0.01 84 1014.6
20260507205140 75 292 0.0 0.0 0.00 0.01 0.01 84 1014.7
20260507204636 74 298 0.0 2.0 0.00 0.01 0.01 85 1014.5
20260507204134 74 276 0.0 4.0 0.00 0.01 0.01 86 1014.7
20260507203631 74 312 2.0 3.0 0.00 0.01 0.01 86 1014.6
20260507203129 73 293 1.0 3.0 0.00 0.01 0.01 87 1014.7
20260507202624 73 83 2.0 6.0 0.00 0.01 0.01 87 1014.6
20260507202121 73 6 3.0 4.0 0.00 0.01 0.01 88 1014.6
20260507201616 73 24 4.0 6.0 0.00 0.01 0.01 87 1014.7
20260507201113 73 15 2.0 3.0 0.00 0.01 0.01 87 1014.9
20260507200609 73 48 3.0 3.0 0.00 0.01 0.01 88 1014.9
20260507200105 72 265 3.0 4.0 0.00 0.01 0.01 88 1014.7
20260507195602 73 215 2.0 4.0 0.00 0.01 0.01 88 1014.8
20260507195059 73 289 0.0 4.0 0.00 0.01 0.01 88 1014.8
20260507194555 73 286 0.0 6.0 0.00 0.01 0.01 88 1014.7
20260507194052 73 30 2.0 3.0 0.00 0.01 0.01 88 1014.9
20260507193549 73 341 2.0 6.0 0.00 0.01 0.01 87 1014.9
20260507193046 73 37 2.0 3.0 0.00 0.01 0.01 87 1014.7
20260507192542 73 37 3.0 4.0 0.00 0.01 0.01 88 1015.0
20260507192039 73 25 3.0 6.0 0.00 0.01 0.01 88 1015.1
20260507191534 72 57 2.0 4.0 0.00 0.01 0.01 88 1015.1
20260507191032 73 31 5.0 7.0 0.00 0.01 0.01 88 1015.1
20260507190529 73 19 4.0 7.0 0.00 0.01 0.01 88 1015.0
20260507190028 73 17 2.0 7.0 0.00 0.01 0.01 88 1015.1
20260507185526 73 24 1.0 4.0 0.00 0.01 0.01 88 1015.1
20260507185022 73 43 1.0 4.0 0.00 0.01 0.01 88 1015.1
20260507184520 73 39 1.0 4.0 0.00 0.01 0.01 89 1015.2
20260507184018 72 56 1.0 6.0 0.00 0.01 0.01 89 1015.1
20260507183513 73 56 2.0 4.0 0.00 0.01 0.01 87 1015.4
20260507183011 74 18 3.0 4.0 0.00 0.01 0.01 87 1015.3
20260507182507 73 38 1.0 3.0 0.00 0.01 0.01 90 1015.4
20260507182003 72 334 3.0 6.0 0.00 0.01 0.01 91 1015.4
20260507181500 72 14 0.0 3.0 0.00 0.01 0.01 93 1015.4
20260507180956 71 322 2.0 6.0 0.00 0.01 0.01 94 1015.6
20260507180453 71 27 4.0 7.0 0.00 0.01 0.01 94 1015.6
20260507175948 71 41 2.0 4.0 0.00 0.01 0.01 95 1015.6
20260507175446 71 354 5.0 8.0 0.00 0.01 0.01 95 1015.6
20260507174943 71 111 1.0 3.0 0.00 0.01 0.01 96 1015.7
20260507174440 71 328 2.0 4.0 0.00 0.01 0.01 96 1015.7
20260507173937 70 327 1.0 4.0 0.00 0.01 0.01 97 1015.8
20260507173435 70 45 5.0 7.0 0.00 0.01 0.01 97 1015.6
20260507172932 70 61 0.0 3.0 0.00 0.01 0.01 97 1015.7
20260507172428 70 4 2.0 3.0 0.00 0.01 0.01 97 1015.7
20260507171924 70 262 2.0 6.0 0.00 0.01 0.01 96 1015.8
20260507171420 70 328 5.0 7.0 0.00 0.01 0.01 95 1015.8
20260507170918 70 28 0.0 3.0 0.00 0.01 0.01 95 1015.8
20260507170414 70 320 2.0 4.0 0.00 0.01 0.01 94 1015.9
20260507165910 70 88 3.0 6.0 0.00 0.01 0.01 94 1015.8
20260507165407 71 58 2.0 2.0 0.00 0.01 0.01 94 1016.0
20260507164902 71 49 5.0 8.0 0.00 0.01 0.01 93 1015.8
20260507164400 71 304 3.0 6.0 0.00 0.01 0.01 93 1015.9
20260507163857 71 269 4.0 8.0 0.00 0.01 0.01 93 1015.9
20260507163354 71 259 0.0 2.0 0.00 0.01 0.01 94 1015.8
20260507162851 71 293 2.0 4.0 0.00 0.01 0.01 95 1015.8
20260507162346 71 19 3.0 3.0 0.00 0.01 0.01 95 1015.8
20260507161843 71 48 1.0 4.0 0.00 0.01 0.01 96 1015.7
20260507161340 70 230 0.0 6.0 0.00 0.01 0.01 97 1015.9
20260507160837 71 340 4.0 6.0 0.00 0.01 0.01 97 1015.7
20260507160332 70 47 2.0 4.0 0.00 0.01 0.01 97 1015.8
20260507155829 70 269 5.0 9.0 0.00 0.01 0.01 98 1015.9
20260507155325 70 325 1.0 3.0 0.00 0.01 0.01 98 1015.8
20260507154822 70 32 0.0 6.0 0.00 0.01 0.01 98 1016.1
20260507154319 70 280 2.0 9.0 0.00 0.01 0.01 98 1015.7
20260507153816 70 16 4.0 6.0 0.00 0.01 0.01 98 1015.8
20260507153312 70 314 2.0 6.0 0.00 0.01 0.01 99 1015.9
20260507152808 71 350 2.0 3.0 0.00 0.01 0.01 99 1015.9
20260507152306 70 335 4.0 4.0 0.00 0.01 0.01 99 1015.6
20260507151801 70 135 4.0 7.0 0.00 0.01 0.01 99 1015.7
20260507151257 70 299 2.0 6.0 0.00 0.01 0.01 99 1015.7
20260507150754 70 18 5.0 7.0 0.00 0.01 0.01 99 1015.8
20260507150251 70 284 2.0 6.0 0.00 0.01 0.01 99 1015.7
20260507145747 71 356 4.0 7.0 0.00 0.01 0.01 99 1015.7
20260507145244 71 26 6.0 10.0 0.00 0.01 0.01 99 1015.6
20260507144741 72 302 1.0 6.0 0.00 0.01 0.01 99 1015.7
20260507144238 72 322 5.0 10.0 0.00 0.01 0.01 99 1015.4
20260507143735 72 317 1.0 4.0 0.00 0.01 0.01 99 1015.5
20260507143232 72 334 1.0 6.0 0.00 0.01 0.01 99 1015.5
20260507142728 73 345 4.0 6.0 0.00 0.01 0.01 99 1015.6
20260507142225 73 330 4.0 6.0 0.00 0.01 0.01 99 1015.2
20260507141721 73 302 2.0 3.0 0.00 0.01 0.01 99 1015.4
20260507141218 73 43 3.0 6.0 0.00 0.01 0.01 99 1015.3
20260507140714 73 292 1.0 2.0 0.00 0.01 0.01 99 1015.4
20260507140212 73 329 2.0 4.0 0.05 0.01 0.01 98 1015.3
20260507135709 73 26 4.0 9.0 0.05 0.01 0.01 98 1015.2
20260507135206 73 322 1.0 3.0 0.00 0.00 0.00 98 1015.3
20260507134702 73 287 4.0 4.0 0.00 0.00 0.00 98 1015.0
20260507134159 74 290 2.0 10.0 0.00 0.00 0.00 98 1015.0
20260507133654 74 68 4.0 7.0 0.00 0.00 0.00 97 1015.1
20260507133152 75 336 3.0 6.0 0.00 0.00 0.00 97 1015.0
20260507132649 75 295 3.0 8.0 0.00 0.00 0.00 96 1014.8
20260507132145 78 310 4.0 7.0 0.00 0.00 0.00 96 1014.6
20260507131643 78 232 3.0 4.0 0.00 0.00 0.00 96 1014.5
20260507131140 78 274 2.0 4.0 0.00 0.00 0.00 96 1014.6
20260507130636 78 234 1.0 3.0 0.00 0.00 0.00 96 1014.7
20260507130134 77 218 4.0 6.0 0.00 0.00 0.00 96 1014.6
20260507125633 77 244 2.0 6.0 0.00 0.00 0.00 96 1014.6
20260507125130 77 262 2.0 3.0 0.00 0.00 0.00 96 1014.6
20260507124626 77 227 3.0 4.0 0.00 0.00 0.00 96 1014.3
20260507124124 77 268 3.0 3.0 0.00 0.00 0.00 96 1014.2
20260507123622 77 139 2.0 3.0 0.00 0.00 0.00 97 1014.3
20260507123119 77 245 3.0 4.0 0.00 0.00 0.00 97 1014.1
20260507122614 77 212 7.0 8.0 0.00 0.00 0.00 97 1014.2
20260507122110 77 255 4.0 4.0 0.00 0.00 0.00 97 1013.9
20260507121606 77 251 3.0 6.0 0.00 0.00 0.00 97 1014.1
20260507121102 77 28 2.0 3.0 0.00 0.00 0.00 97 1013.8
20260507120558 77 197 3.0 4.0 0.00 0.00 0.00 97 1013.9
20260507120055 77 254 2.0 6.0 0.00 0.00 0.00 97 1013.7
20260507115551 77 259 3.0 3.0 0.00 0.00 0.00 97 1013.7
20260507115047 77 219 0.0 2.0 0.00 0.00 0.00 97 1013.6
20260507114543 77 263 2.0 6.0 0.00 0.00 0.00 97 1013.4
20260507114041 77 203 4.0 6.0 0.00 0.00 0.00 97 1013.4